Weather History for KMBG - January, 2013

Change the Weather History Date:

Tuesday, January 22, 2013

  Actual Average Record
Temperature  
Mean Temperature 8 °F 16 °F  
Max Temperature 15 °F 26 °F 56 °F (1942)
Min Temperature 1 °F 6 °F -31 °F (1927)
Degree Days  
Heating Degree Days 57 49  
Month to date heating degree days 1021 1078  
Since 1 July heating degree days 4203 4294  
Cooling Degree Days 0 0  
Month to date cooling degree days 0 0  
Year to date cooling degree days 0 0  
Moisture  
Dew Point 1 °F    
Average Humidity 77    
Maximum Humidity 88    
Minimum Humidity 66    
Precipitation  
Precipitation T in 0.01 in 0.31 in (1982)
Month to date precipitation 0.45 0.21  
Year to date precipitation 0.45 0.21  
Snow  
Snow T in - - ()
Month to date snowfall 8.4  
Since 1 July snowfall 17.7  
Snow Depth 3.00 in    
Sea Level Pressure  
Sea Level Pressure 30.25 in    
Wind  
Wind Speed 5 mph (SSE)    
Max Wind Speed 10 mph    
Max Gust Speed 14 mph    
Visibility 10 miles    
Events      
T = Trace of Precipitation, MM = Missing Value Source: NWS Daily Summary

Daily Weather History Graph

Daily Weather History Graph

Search for Another Location

Airport or City:

Trip Planner

Search our weather history database for the weather conditions in past years. The results will help you decide how hot, cold, wet, or windy it might be!

Date:

Astronomy

Jan. 22, 2013 Rise Set
Actual Time 8:12 AM CST 5:34 PM CST
Civil Twilight 7:40 AM CST 6:06 PM CST
Nautical Twilight 7:04 AM CST 6:43 PM CST
Astronomical Twilight 6:28 AM CST 7:18 PM CST
Moon 1:56 PM CST (1/22) 4:37 AM CST (1/22)
Length of Visible Light 10h 26m
Length of Day
9h 21m
Waxing Gibbous, 83% of the Moon is Illuminated
Jan 22
Waxing Gibbous
Jan 26
Full
Feb 3
Last Quarter
Feb 10
New
Feb 17
First Quarter

Hourly Weather History & Observations

Time (CST) Temp. Windchill Dew Point Humidity Pressure Visibility Wind Dir Wind Speed Gust Speed Precip Events Conditions
12:52 AM 5.0 °F - -2.9 °F 70% 30.33 in 10.0 mi Calm Calm - N/A   Overcast
1:52 AM 1.9 °F - -5.1 °F 72% 30.33 in 10.0 mi Calm Calm - N/A   Overcast
2:52 AM 1.9 °F - -4.0 °F 76% 30.33 in 10.0 mi Calm Calm - N/A   Scattered Clouds
3:52 AM 3.9 °F -3.4 °F -2.9 °F 73% 30.33 in 10.0 mi ENE 3.5 mph - N/A   Overcast
4:52 AM 5.0 °F - -4.0 °F 66% 30.32 in 10.0 mi Calm Calm - 0.00 in   Overcast
5:52 AM 5.0 °F -4.1 °F -4.0 °F 66% 30.33 in 10.0 mi East 4.6 mph - N/A   Overcast
6:52 AM 1.9 °F -7.6 °F -6.0 °F 69% 30.31 in 10.0 mi SE 4.6 mph - N/A   Mostly Cloudy
7:52 AM 1.9 °F -9.2 °F -6.0 °F 69% 30.31 in 10.0 mi SE 5.8 mph - N/A   Scattered Clouds
8:52 AM 3.9 °F -5.3 °F -4.0 °F 70% 30.31 in 10.0 mi SE 4.6 mph - N/A   Overcast
9:52 AM 5.0 °F -6.9 °F -2.0 °F 73% 30.31 in 10.0 mi SSE 6.9 mph - N/A   Overcast
10:52 AM 8.1 °F -5.3 °F -0.0 °F 70% 30.31 in 10.0 mi SSE 9.2 mph - N/A   Overcast
11:52 AM 10.0 °F -3.7 °F 1.9 °F 70% 30.29 in 10.0 mi South 10.4 mph - N/A   Overcast
12:52 PM 10.9 °F -2.6 °F 3.0 °F 70% 30.25 in 10.0 mi South 10.4 mph - N/A   Mostly Cloudy
1:20 PM 10.4 °F -1.5 °F 3.2 °F 73% 30.12 in 10.0 mi South 8.1 mph - N/A   Mostly Cloudy
1:29 PM 12.2 °F -0.2 °F 3.2 °F 67% 30.11 in 10.0 mi South 9.2 mph - N/A   Overcast
1:52 PM 12.0 °F -1.3 °F 5.0 °F 73% 30.23 in 10.0 mi South 10.4 mph - N/A   Overcast
2:52 PM 14.0 °F 2.0 °F 7.0 °F 74% 30.20 in 10.0 mi South 9.2 mph - N/A   Overcast
3:52 PM 15.1 °F 2.5 °F 7.0 °F 70% 30.20 in 10.0 mi SSW 10.4 mph - N/A   Clear
4:52 PM 15.1 °F 6.4 °F 7.0 °F 70% 30.19 in 10.0 mi South 5.8 mph - N/A   Mostly Cloudy
5:52 PM 12.0 °F 1.5 °F 6.1 °F 77% 30.19 in 10.0 mi SSE 6.9 mph - N/A   Scattered Clouds
6:52 PM 10.9 °F 1.4 °F 6.1 °F 81% 30.18 in 10.0 mi South 5.8 mph - N/A   Clear
7:52 PM 10.0 °F 1.8 °F 6.1 °F 84% 30.19 in 10.0 mi SSW 4.6 mph - N/A   Clear
8:52 PM 8.1 °F 1.4 °F 3.9 °F 83% 30.17 in 10.0 mi SSE 3.5 mph - N/A   Scattered Clouds
9:52 PM 6.1 °F - 3.0 °F 87% 30.18 in 10.0 mi Calm Calm - N/A   Clear
10:52 PM 5.0 °F - 1.0 °F 84% 30.19 in 10.0 mi Calm Calm - N/A   Clear
11:52 PM 10.0 °F -0.9 °F 5.0 °F 80% 30.19 in 10.0 mi WNW 6.9 mph - N/A   Clear